PD1VW-10 Weather Reports


Display with metric or nautical units.
time (UTC)temp
F
wind
direction
speed
MPH
gust
MPH
rain 1hr
in
rain 24hr
in
rain mn
in
humidity
%
barometer
mb
20260904040031 69 221 7.0 11.0 0.00 0.02 0.00 89 1011.5
20260904035028 69 240 8.0 13.0 0.00 0.02 0.00 90 1011.9
20260904034026 69 202 7.0 8.0 0.00 0.02 0.00 90 1011.8
20260904033023 69 246 8.0 11.0 0.00 0.02 0.00 90 1011.9
20260904032021 69 241 9.0 13.0 0.00 0.02 0.00 90 1012.0
20260904031038 69 192 6.0 9.0 0.00 0.02 0.00 90 1012.2
20260904030016 69 245 6.0 9.0 0.00 0.02 0.00 90 1012.1
20260904025043 69 205 5.0 7.0 0.00 0.03 0.00 90 1012.3
20260904024041 69 241 8.0 13.0 0.00 0.03 0.00 90 1012.5
20260904023038 69 202 10.0 13.0 0.00 0.03 0.00 90 1012.6
20260904022036 68 229 9.0 13.0 0.00 0.04 0.00 91 1012.7
20260904021033 69 194 5.0 8.0 0.00 0.04 0.00 92 1012.6
20260904020051 68 228 8.0 11.0 0.00 0.04 0.00 92 1012.9
20260904015029 68 239 9.0 13.0 0.00 0.04 0.00 92 1013.1
20260904014026 68 219 5.0 8.0 0.00 0.04 0.00 92 1013.2
20260904013024 68 201 6.0 9.0 0.00 0.04 0.00 92 1013.2
20260904012021 68 213 6.0 14.0 0.00 0.04 0.00 93 1013.5
20260904011019 68 230 5.0 7.0 0.00 0.04 0.00 93 1013.5
20260904010016 68 222 8.0 11.0 0.00 0.05 0.00 93 1013.6
20260904005104 68 221 4.0 7.0 0.00 0.06 0.00 93 1013.8
20260904004042 68 215 8.0 13.0 0.00 0.08 0.00 93 1013.9
20260904003059 68 234 6.0 10.0 0.00 0.08 0.00 93 1013.8
20260904002037 68 218 7.0 10.0 0.00 0.08 0.00 92 1013.9
20260904001054 69 212 7.0 9.0 0.00 0.09 0.00 92 1014.1
20260904000031 69 221 7.0 13.0 0.00 0.09 0.00 92 1013.9
20260903235049 69 222 7.0 10.0 0.00 0.09 0.00 92 1014.2
20260903234027 69 209 7.0 10.0 0.00 0.09 0.00 92 1014.1
20260903233024 69 216 6.0 10.0 0.00 0.09 0.00 92 1014.3
20260903232022 68 227 7.0 13.0 0.00 0.09 0.00 92 1014.5
20260903231019 68 208 7.0 13.0 0.00 0.09 0.00 92 1014.5
20260903230017 68 231 6.0 10.0 0.00 0.09 0.00 92 1014.8
20260903225044 68 208 6.0 9.0 0.00 0.09 0.00 92 1015.0
20260903224042 68 200 5.0 10.0 0.00 0.09 0.00 93 1015.1
20260903223039 68 221 7.0 9.0 0.00 0.09 0.00 93 1015.2
20260903222037 68 228 5.0 8.0 0.00 0.09 0.00 93 1015.3
20260903221054 68 206 8.0 13.0 0.00 0.09 0.00 93 1015.4
20260903220032 68 201 6.0 11.0 0.00 0.10 0.10 93 1015.5
20260903215029 68 209 4.0 8.0 0.00 0.10 0.10 93 1015.7
20260903214026 68 209 5.0 7.0 0.00 0.10 0.10 94 1015.9
20260903213024 68 221 5.0 10.0 0.00 0.10 0.10 94 1015.8
20260903212041 68 210 6.0 8.0 0.00 0.10 0.10 94 1016.0
20260903211019 68 225 5.0 8.0 0.00 0.10 0.10 95 1016.0
20260903210037 67 206 4.0 7.0 0.00 0.10 0.10 95 1016.4
20260903205044 67 211 4.0 4.0 0.00 0.10 0.10 95 1016.4
20260903204101 67 189 3.0 7.0 0.00 0.10 0.10 95 1016.4
20260903203039 67 217 3.0 4.0 0.00 0.10 0.10 95 1016.6
20260903202036 67 203 3.0 6.0 0.00 0.11 0.10 95 1016.6
20260903201034 67 209 2.0 3.0 0.00 0.11 0.10 95 1016.7
20260903200031 67 212 3.0 6.0 0.00 0.11 0.10 95 1016.7
20260903195029 67 216 3.0 4.0 0.00 0.11 0.10 94 1016.6
20260903194047 67 198 4.0 8.0 0.00 0.11 0.10 94 1016.9
20260903193044 67 213 5.0 7.0 0.00 0.11 0.10 93 1017.2
20260903192022 67 208 3.0 3.0 0.00 0.11 0.10 93 1017.0
20260903191019 68 214 3.0 7.0 0.00 0.11 0.10 92 1017.1
20260903190017 68 219 2.0 3.0 0.00 0.11 0.10 92 1017.0
20260903185044 68 184 2.0 3.0 0.00 0.11 0.10 91 1016.9
20260903184042 67 203 4.0 6.0 0.00 0.11 0.10 90 1017.1
20260903183039 68 155 2.0 2.0 0.00 0.11 0.10 88 1017.0
20260903182037 68 222 3.0 4.0 0.00 0.11 0.10 86 1017.1
20260903181034 68 221 3.0 4.0 0.00 0.12 0.10 85 1017.0
20260903180032 68 244 3.0 4.0 0.00 0.13 0.10 84 1017.3
20260903175029 69 221 3.0 4.0 0.00 0.13 0.10 83 1017.3
20260903174026 69 237 3.0 4.0 0.00 0.13 0.10 83 1017.1
20260903173023 70 237 4.0 7.0 0.00 0.13 0.10 82 1017.5
20260903172021 70 273 3.0 6.0 0.00 0.13 0.10 83 1017.3
20260903171058 69 201 5.0 9.0 0.00 0.13 0.10 83 1017.2
20260903170056 69 267 6.0 9.0 0.00 0.13 0.10 83 1017.1
20260903165043 70 234 5.0 9.0 0.00 0.13 0.10 83 1017.2
20260903164040 70 255 3.0 6.0 0.00 0.13 0.10 82 1017.0
20260903163058 70 257 5.0 7.0 0.00 0.13 0.10 82 1017.4
20260903162035 70 244 5.0 8.0 0.00 0.13 0.10 82 1017.2
20260903161033 70 279 3.0 4.0 0.00 0.13 0.10 82 1017.6
20260903160030 70 237 8.0 10.0 0.00 0.13 0.10 81 1017.4
20260903155028 70 215 6.0 9.0 0.00 0.13 0.10 80 1017.5
20260903154025 70 245 3.0 4.0 0.00 0.13 0.10 79 1017.2
20260903153043 70 249 9.0 13.0 0.00 0.13 0.10 79 1017.4
20260903152020 70 273 4.0 7.0 0.00 0.13 0.10 80 1017.4
20260903151018 70 233 6.0 11.0 0.00 0.13 0.10 79 1017.3
20260903150035 70 151 4.0 13.0 0.00 0.13 0.10 80 1017.4
20260903145043 70 256 2.0 6.0 0.00 0.13 0.10 80 1017.5
20260903144040 70 273 9.0 14.0 0.00 0.13 0.10 79 1017.3
20260903143038 70 258 5.0 11.0 0.00 0.13 0.10 78 1017.2
20260903142035 70 292 7.0 13.0 0.00 0.13 0.10 80 1017.0
20260903141052 70 269 5.0 9.0 0.00 0.13 0.10 82 1017.3
20260903140030 70 252 11.0 14.0 0.00 0.13 0.10 81 1017.3
20260903135027 70 249 8.0 14.0 0.00 0.13 0.10 81 1017.2
20260903134025 70 295 9.0 13.0 0.00 0.13 0.10 81 1017.3
20260903133023 70 258 5.0 14.0 0.00 0.13 0.10 80 1017.1
20260903132020 70 292 7.0 10.0 0.00 0.13 0.10 81 1017.0
20260903131018 70 234 5.0 14.0 0.00 0.13 0.10 79 1016.8
20260903130015 70 271 8.0 13.0 0.00 0.13 0.10 79 1017.2
20260903125103 70 268 9.0 14.0 0.00 0.13 0.10 79 1017.0
20260903124040 70 236 4.0 9.0 0.00 0.13 0.10 78 1016.8
20260903123038 70 287 12.0 18.0 0.00 0.13 0.10 78 1016.7
20260903122056 70 268 11.0 16.0 0.00 0.13 0.10 79 1016.7
20260903121033 70 264 6.0 11.0 0.00 0.13 0.10 81 1016.6
20260903120030 70 279 7.0 13.0 0.00 0.13 0.10 82 1016.6
20260903115027 69 268 11.0 16.0 0.00 0.13 0.10 81 1016.6
20260903114025 69 306 7.0 10.0 0.00 0.13 0.10 82 1016.8
20260903113022 69 243 7.0 11.0 0.00 0.13 0.10 81 1016.4
20260903112020 69 275 5.0 8.0 0.00 0.13 0.10 82 1016.3
20260903111037 69 252 11.0 19.0 0.00 0.13 0.10 82 1016.4
20260903110045 69 237 9.0 15.0 0.00 0.13 0.10 82 1016.3
20260903105103 69 252 10.0 19.0 0.00 0.13 0.10 82 1016.3
20260903104040 69 326 6.0 13.0 0.00 0.13 0.10 84 1016.2
20260903103038 69 276 9.0 14.0 0.00 0.13 0.10 84 1016.2
20260903102035 69 230 7.0 13.0 0.00 0.13 0.10 83 1016.2
20260903101053 69 271 9.0 14.0 0.00 0.13 0.10 83 1016.1
20260903100030 69 265 5.0 9.0 0.00 0.13 0.10 83 1015.9
20260903095027 69 270 8.0 11.0 0.00 0.13 0.10 84 1015.9
20260903094025 69 238 11.0 14.0 0.00 0.13 0.10 83 1016.1
20260903093022 70 223 7.0 9.0 0.00 0.13 0.10 84 1015.9
20260903092020 69 287 9.0 13.0 0.00 0.13 0.10 84 1015.8
20260903091017 70 221 8.0 11.0 0.00 0.13 0.10 83 1015.9
20260903090045 69 256 7.0 14.0 0.00 0.13 0.10 84 1015.7
20260903085043 69 275 7.0 9.0 0.00 0.13 0.10 85 1015.9
20260903084040 69 276 7.0 10.0 0.00 0.13 0.10 86 1015.5
20260903083038 68 225 8.0 13.0 0.00 0.13 0.10 87 1015.5
20260903082055 68 243 7.0 14.0 0.00 0.13 0.10 86 1015.5
20260903081032 68 246 6.0 14.0 0.00 0.13 0.10 87 1015.4
20260903080030 68 228 6.0 9.0 0.00 0.13 0.10 88 1015.4
20260903075027 67 279 7.0 13.0 0.00 0.13 0.10 90 1015.4
20260903074025 67 221 4.0 8.0 0.00 0.13 0.10 93 1015.3
20260903073023 66 220 7.0 15.0 0.00 0.13 0.10 95 1015.4
20260903072020 66 253 5.0 8.0 0.01 0.13 0.10 97 1015.4
20260903071018 65 225 6.0 13.0 0.01 0.13 0.10 98 1015.4
20260903070016 65 233 4.0 8.0 0.01 0.13 0.10 98 1015.5
20260903065103 65 274 4.0 11.0 0.01 0.13 0.10 98 1015.5
20260903064041 65 257 2.0 8.0 0.01 0.13 0.10 98 1015.4
20260903063058 65 267 1.0 8.0 0.01 0.13 0.10 99 1015.3
20260903062036 65 257 5.0 9.0 0.01 0.12 0.09 98 1015.4
20260903061033 65 0.0 0.0 0.01 0.12 0.09 98 1015.3
20260903060050 65 0.0 0.0 0.01 0.12 0.09 98 1015.2
20260903055027 65 216 5.0 11.0 0.01 0.12 0.09 98 1015.4
20260903054044 65 0.0 0.0 0.01 0.12 0.09 98 1015.3
20260903053022 65 237 0.0 2.0 0.01 0.12 0.09 98 1015.4
20260903052019 65 0.0 0.0 0.00 0.11 0.08 99 1015.5
20260903051017 65 0.0 0.0 0.00 0.11 0.08 99 1015.3
20260903050045 65 238 2.0 6.0 0.00 0.11 0.08 99 1015.3
20260903045042 64 0.0 0.0 0.00 0.11 0.08 99 1015.2
20260903044040 64 206 4.0 7.0 0.00 0.11 0.08 99 1015.3
20260903043037 64 159 3.0 6.0 0.00 0.11 0.08 99 1015.1
20260903042035 64 190 3.0 6.0 0.00 0.11 0.08 99 1015.1
20260903041032 64 151 4.0 6.0 0.00 0.11 0.08 99 1015.2